world map with BTU marked

BTU - Airport

This information may not be accurate or current and is not valid for navigation or flight planning. No warranty of fitness for any purpose is made or implied.

flag of Sarawakflag of Malaysia

Donate via PayPal

Additional information is available on the NEW Great Circle Mapper

Location
City:  Bintulu, Sarawak, Malaysia
ICAO / IATA:WBGB / BTU

Details
Type:Airport (Aerodrome, Airfield)
Use:Public/Civil
Latitude:3°07'26"N (3.123850)
Longitude:113°01'14"E (113.020472)
Datum:WGS 1984
Elevation:74 ft (23 m)
Runways:1
Longest:9006 × 147 ft (2745 × 45 m)

Time
Timezone:UTC+8 (DST+10)
Local Time:

Weather
METAR:WBGB  041400Z 00000KT 9999 SCT014 BKN150 26/25 Q1012
TAF:WBGB  041100Z 0412/0512 VRB03KT 9999 SCT016

Related Locations
Nearby:
Farthest:FBA: 12368 mi / 19904 km
Fonte Boa, AM, BR

Find:

   beyond  
but within

Other Information
Maps:
Sources:

  


 


Great Circle Mapper   Great Circle Mapper
Great Circle Mapper FAQ   Great Circle Mapper FAQ
  Karl's Home Page
KLSē   KLSē Home
   GC on Facebook
Airlines of the World   Airlines of the World
Donate via PayPal


Copyright © 2004-2019, Karl L. Swartz. All rights reserved.
All trademarks mentioned herein belong to their respective owners.

Please see credits for attribution and copyright information.

Karl Swartz <karl@kls2.com>
  Powered by FreeBSD
Valid HTML 4.01!
Labeled with ICRA
hCard Microformat
Geo Microformat